{"data":{"norad_id":62102,"intl_designator":"2024-220Q","name":"STARLINK-33562","alt_names":[],"object_type":"PAYLOAD","status":"ACTIVE","operator":null,"country":"US","launch_date":"2024-11-25","launch_site_code":"AFETR","launch_vehicle":null,"mission":null,"orbit_class":"UNKNOWN","rcs_meters":null,"size_class":null,"mass_kg":null,"dimensions":null,"purposes":["comms"],"wikipedia_slug":null,"has_3d_model":false,"image_url":null,"decayed_at":null,"tle_current":{"epoch":"2026-09-21T11:09:49.145760Z","epoch_age_seconds":98884,"freshness":"FRESH","line1":"1 62102U 24220Q   26264.46515215  .00008468  00000+0  31683-3 0  9999","line2":"2 62102  42.9986 179.8044 0000531 338.8039  21.2790 15.27586430102967","mean_motion":15.2758643,"eccentricity":5.31e-5,"inclination_deg":42.9986,"raan_deg":179.8044,"arg_perigee_deg":338.8039,"mean_anomaly_deg":21.279,"bstar":0.00031683,"rev_number":10296,"period_min":94.266351920919,"perigee_km":482.66551441468,"apogee_km":483.39417033334,"semimajor_km":6861.166842374,"source":"CELESTRAK","updated_at":"2026-09-22T09:00:49.499007Z"}}}